Wind_Speed
30 30 30 30 31 32 32 33 33 31 29 28 27 26 25 26 26 25 26 26 28 31 35 39 43 41 38 37 37 35 34 33 33 33 32 30 29 29 29 28 27 27 27 26 25 24 24 24 24 24 23 22 21 22 22 21 21 21 22 22 21 20 19 19 20 19 17 17 18 17 17 17 17 17 17 16 17 17 17 17 16 17 17 17 18
32 32 33 33 33 33 33 33 33 33 31 30 29 28 26 27 27 27 27 27 27 30 33 38 43 43 40 37 37 37 36 35 35 35 33 32 31 30 30 29 28 28 27 26 26 25 25 24 24 24 24 23 23 23 23 22 22 22 22 22 22 21 20 19 20 20 19 18 18 19 18 19 19 18 18 18 18 18 19 18 18 18 19 19 19
34 34 34 34 35 35 35 34 33 33 32 30 30 29 28 28 28 28 28 28 27 28 33 38 42 43 40 38 38 38 37 37 37 36 35 34 33 32 31 30 29 29 28 28 28 27 26 25 25 25 24 23 24 24 24 23 23 23 23 23 22 21 21 20 20 21 21 20 20 21 20 20 20 20 19 19 20 20 20 20 20 21 21 21 21
36 35 35 35 35 36 35 35 34 33 33 31 30 30 29 28 29 30 30 29 28 28 32 37 41 42 41 41 42 40 39 38 38 37 36 35 35 34 33 32 31 30 30 30 29 28 27 25 26 26 25 24 24 24 24 24 24 24 25 24 23 22 22 21 22 23 23 23 23 23 22 21 22 22 22 22 21 21 22 23 23 23 23 23 23
36 36 35 35 35 36 36 36 35 34 33 32 31 31 30 29 30 31 31 30 29 28 31 36 39 40 40 42 43 41 39 39 39 38 37 37 37 36 34 33 32 32 31 31 30 29 28 26 26 26 25 24 25 25 24 25 25 26 26 26 25 24 23 23 24 24 25 25 25 24 23 23 23 23 23 23 24 24 24 25 25 25 25 24 24
35 35 35 34 34 35 36 36 35 35 34 33 32 31 31 30 30 30 31 31 30 29 30 34 38 38 39 41 41 40 40 40 39 39 39 38 38 36 34 33 33 33 32 31 30 30 28 27 27 26 25 25 25 25 25 25 25 26 27 27 26 25 25 25 26 26 26 26 26 25 25 24 24 25 24 24 25 25 26 26 26 26 26 25 25
32 33 33 33 33 34 35 35 35 35 34 34 33 32 31 31 30 31 31 31 30 29 29 33 37 39 40 41 41 40 41 41 41 40 40 39 38 37 35 34 33 33 32 31 31 30 28 27 26 26 25 25 26 26 26 25 25 26 27 28 28 26 26 26 27 27 27 27 27 27 26 25 25 26 26 25 25 26 26 26 26 26 26 26 27
29 29 30 31 31 31 32 34 35 35 34 34 33 32 31 32 31 31 31 31 31 30 29 31 36 40 42 42 42 42 43 43 42 42 41 40 39 38 37 35 34 33 32 31 30 29 28 27 26 26 25 25 26 26 27 26 25 26 27 28 29 28 27 27 27 27 28 27 27 28 27 26 26 26 26 26 26 27 26 26 26 27 26 26 27
27 27 28 28 29 29 29 30 32 32 32 32 33 32 32 32 32 31 31 33 32 31 30 30 34 39 43 44 44 44 44 44 44 43 41 40 40 39 38 37 35 34 33 32 31 30 28 27 26 26 26 26 26 26 27 27 26 26 28 29 29 28 28 27 27 27 27 27 28 28 28 27 27 26 26 27 27 27 27 27 27 28 27 26 27
27 26 26 26 27 27 27 27 28 29 30 30 31 31 31 32 32 31 31 33 34 32 31 30 31 36 41 44 44 44 45 45 45 44 42 41 41 40 40 38 37 36 35 33 32 31 29 28 28 27 27 27 27 27 27 28 27 27 28 28 28 28 27 27 26 27 27 27 28 28 28 28 28 28 27 27 27 27 28 28 28 28 28 27 27
26 26 26 26 26 26 25 25 25 26 27 28 29 30 30 31 31 31 31 33 34 34 32 30 30 34 38 41 43 43 44 45 46 46 44 43 42 42 42 41 39 38 37 35 34 33 31 30 30 29 28 28 28 28 28 28 29 28 28 28 28 27 27 26 26 26 27 27 28 28 28 29 30 29 28 28 27 27 28 28 28 29 28 27 28
26 26 26 26 25 25 24 24 24 24 24 25 27 29 30 30 30 30 30 32 35 35 34 31 31 33 34 36 40 42 43 45 47 47 47 45 44 43 43 43 41 39 38 37 36 35 34 33 32 31 30 29 30 30 29 29 29 29 28 28 27 27 27 27 26 27 27 28 28 29 29 29 30 30 30 28 27 27 28 29 29 29 29 28 29
26 26 25 25 25 24 23 23 23 23 23 23 24 27 29 29 29 29 29 31 35 36 36 34 32 32 32 33 36 39 42 45 46 48 48 47 45 45 44 43 42 40 39 38 38 37 36 35 34 33 31 30 30 31 30 30 30 29 29 28 28 28 28 27 28 28 28 28 29 29 30 30 31 32 31 30 29 29 29 30 30 30 30 30 30
27 26 26 26 25 24 23 23 23 23 23 23 23 25 27 28 29 29 28 30 33 36 38 36 33 32 31 31 32 36 39 43 45 47 48 47 46 46 45 44 43 42 40 40 39 39 38 36 35 34 33 32 31 32 32 31 31 30 29 29 29 29 29 28 28 28 28 28 29 31 32 32 32 32 32 31 31 31 31 32 32 31 31 31 31
28 28 28 29 29 28 26 24 24 24 23 23 23 23 25 27 28 29 28 28 31 35 38 38 36 33 32 31 31 32 35 39 42 44 46 46 47 47 47 45 44 43 42 41 41 40 39 38 36 35 34 33 33 33 33 33 32 31 31 30 30 30 30 28 28 28 29 29 30 32 33 32 32 33 32 31 31 32 32 33 33 33 33 32 32
30 31 32 33 33 33 31 29 27 26 25 24 23 23 24 26 27 28 28 29 29 33 37 40 39 36 34 33 31 30 31 34 38 42 44 45 46 46 46 46 45 44 43 43 43 43 42 41 38 36 35 35 35 35 35 35 34 33 32 31 31 31 30 29 28 29 29 29 30 31 32 32 32 32 32 32 32 32 32 33 34 34 34 33 33
32 34 34 33 33 33 33 32 30 29 28 26 25 23 24 26 27 27 27 28 29 30 34 39 40 39 36 35 33 31 30 31 33 38 42 44 45 45 45 45 46 46 45 44 45 45 44 43 41 40 38 37 37 37 37 37 36 35 33 32 31 31 31 30 31 30 30 30 30 30 30 30 31 32 32 32 32 32 31 32 33 33 32 32 33
33 33 32 30 30 30 30 30 30 30 29 28 27 25 24 25 26 27 27 27 28 29 31 35 40 41 39 37 35 33 32 30 30 33 37 41 43 43 43 44 45 45 46 46 46 46 45 44 43 42 41 40 40 40 40 39 37 35 34 33 32 32 31 32 33 32 31 31 30 30 29 30 31 32 32 32 32 32 31 31 31 30 30 31 31
33 31 30 29 29 29 29 29 29 29 29 29 29 27 25 24 25 26 26 27 28 29 29 32 37 41 41 39 37 35 33 32 30 30 32 35 37 39 41 42 43 44 45 46 47 47 46 46 45 44 43 42 42 42 41 41 39 37 37 36 34 33 33 35 35 34 33 32 31 30 30 30 31 32 32 32 32 32 31 31 30 30 30 30 30
32 31 31 30 30 30 29 28 28 27 27 28 29 29 28 25 25 25 25 26 27 28 29 30 34 39 42 41 39 36 34 33 31 29 29 30 31 33 36 38 41 44 45 46 47 47 47 46 46 46 45 45 45 44 43 43 41 40 38 37 35 35 37 38 37 36 35 34 33 32 31 31 31 32 32 33 33 33 33 32 31 31 31 31 30
32 31 31 30 29 29 28 28 27 26 26 26 27 29 30 28 26 25 25 25 27 28 29 29 32 37 41 42 40 37 35 33 32 30 29 29 28 29 31 34 38 41 44 45 46 46 46 46 46 46 47 46 46 46 45 44 43 41 39 37 37 38 39 39 38 38 37 35 35 35 34 33 33 33 33 33 33 34 34 33 32 32 32 31 30
32 31 31 30 29 28 27 27 26 26 26 25 26 27 30 30 29 28 26 25 26 28 29 29 30 34 40 42 41 38 36 34 33 31 31 30 29 28 29 32 35 38 40 42 43 44 46 47 48 48 48 48 47 47 46 45 44 42 39 38 38 40 40 39 40 40 38 37 38 37 36 36 35 34 34 33 34 34 34 34 34 32 30 29 29
32 32 31 30 29 28 27 26 26 26 26 26 26 26 28 29 31 31 28 26 27 28 29 29 29 31 37 41 41 39 37 35 34 33 31 30 30 30 30 31 33 35 36 37 39 40 43 45 48 50 51 50 48 47 47 47 46 43 41 40 40 40 40 40 40 40 40 39 39 38 38 37 37 36 35 34 35 35 34 35 34 32 31 30 30
33 33 31 30 29 28 27 27 26 26 26 26 26 27 27 28 30 32 31 29 28 28 29 29 29 30 34 39 41 40 37 36 35 34 32 31 31 31 31 31 32 33 34 35 36 36 37 39 43 46 49 50 50 48 47 47 46 45 43 43 42 42 43 42 41 40 39 39 39 39 39 38 37 36 36 35 35 35 35 34 33 32 31 31 32
33 33 32 30 29 28 27 27 26 26 26 26 27 27 28 27 28 30 32 31 29 29 29 29 29 29 32 37 41 42 39 37 35 35 33 32 32 32 31 31 32 33 33 34 34 34 34 35 37 39 42 44 46 47 46 46 47 46 45 45 45 45 45 44 43 41 40 39 39 39 40 39 38 37 36 36 35 35 35 34 33 32 32 33 33
32 32 32 31 30 28 28 27 27 26 26 26 26 27 27 27 28 29 31 32 31 30 30 29 29 29 31 35 40 43 41 38 36 35 34 34 34 33 32 31 31 32 33 33 33 33 34 34 34 35 35 36 38 40 42 43 45 45 45 45 45 46 46 47 46 45 44 42 41 41 41 40 39 37 37 36 35 35 36 35 33 33 33 34 33
32 32 32 32 31 29 28 27 26 26 26 26 26 26 27 27 27 28 30 31 31 30 30 30 29 29 30 34 39 42 43 40 37 35 35 35 35 33 32 30 30 30 32 33 34 34 33 33 33 33 34 34 34 35 36 39 41 42 42 43 44 44 45 46 46 45 45 44 42 41 41 41 38 37 36 35 35 36 35 34 33 33 33 33 32
33 32 32 32 31 30 28 26 25 25 25 25 25 25 25 25 25 27 28 29 30 30 30 29 29 29 30 33 37 41 42 41 39 37 36 35 34 33 31 29 28 29 30 32 33 34 33 33 32 32 34 34 34 34 35 37 37 38 39 41 42 43 43 44 43 42 42 42 40 39 39 38 37 36 35 35 36 36 35 34 33 33 33 33 31
33 33 32 32 30 29 27 26 24 24 24 24 24 24 24 23 23 25 26 27 28 28 29 29 28 28 29 32 37 40 41 40 39 37 35 35 34 32 30 29 28 29 29 30 31 33 33 32 31 31 32 33 33 34 35 37 38 38 39 40 41 42 42 42 41 40 39 39 38 38 38 37 36 35 34 35 36 37 36 36 36 36 35 32 26
32 32 32 31 30 28 27 26 24 23 23 22 22 22 22 22 22 23 24 25 26 26 27 28 28 28 29 32 36 39 40 39 37 36 35 34 34 32 30 28 28 28 29 30 30 31 33 33 32 31 30 30 30 30 31 33 36 36 36 37 38 38 37 37 38 39 39 37 35 36 38 38 36 35 36 37 38 37 35 35 34 32 28 23 19
31 32 32 32 29 27 26 25 24 23 22 22 21 21 21 21 21 22 23 24 24 24 25 27 27 28 29 30 33 36 38 38 36 35 33 33 33 32 30 27 27 27 28 29 29 29 30 31 31 30 29 28 29 27 25 25 26 27 29 32 32 31 32 33 35 37 39 39 38 39 40 39 38 38 39 38 34 32 30 28 25 22 20 18 18
31 31 32 32 29 26 25 25 24 23 22 21 21 20 20 20 21 22 23 23 24 24 25 26 27 28 29 30 32 34 36 37 35 33 32 32 32 31 29 27 27 26 25 25 26 27 27 28 28 28 28 28 28 26 23 22 23 26 30 32 30 29 31 31 30 31 34 35 36 38 38 38 38 38 37 33 28 25 23 22 20 19 20 21 21
31 31 32 31 29 26 24 24 24 23 22 21 20 19 19 19 20 21 22 23 23 24 24 25 26 27 28 30 33 34 35 36 35 33 32 31 30 29 28 28 27 25 22 22 23 23 23 23 23 24 26 27 27 25 24 24 25 25 26 25 24 26 30 30 28 29 30 31 33 35 36 37 36 33 29 25 23 21 21 21 22 22 22 21 20
31 30 31 30 28 26 24 23 23 23 22 20 19 19 19 19 19 20 21 21 23 23 24 24 25 25 25 27 32 33 34 35 36 34 31 30 29 28 28 28 26 22 20 20 20 19 19 21 22 23 24 25 25 25 25 25 25 24 23 23 22 23 25 27 31 35 36 36 37 38 36 35 32 28 25 23 22 21 22 22 22 21 20 19 19
30 30 30 30 28 26 24 23 22 22 21 20 19 18 18 18 19 19 19 20 22 23 24 24 25 26 25 26 29 31 32 34 35 34 32 30 28 27 27 27 24 21 19 18 18 18 19 21 22 23 25 25 24 23 23 23 23 23 23 24 24 23 23 25 28 33 36 37 37 34 30 27 26 25 23 22 21 21 20 20 19 19 19 20 20
29 29 29 29 27 25 24 22 21 21 20 19 18 17 17 17 18 19 19 20 21 22 23 23 25 27 27 26 27 29 31 32 34 33 32 30 28 27 27 26 23 20 18 18 19 19 19 19 19 20 23 25 26 25 24 23 22 22 24 25 24 24 24 24 23 24 26 28 28 26 23 21 20 20 20 19 19 19 19 19 19 19 19 19 19
28 27 27 27 26 24 23 22 21 20 19 17 16 16 16 17 18 19 19 20 21 22 23 23 26 28 27 25 24 26 28 31 34 34 32 29 28 28 27 25 21 18 17 18 19 20 20 18 17 18 20 21 22 22 22 20 20 20 20 21 21 22 22 20 18 16 15 15 15 15 14 14 15 15 16 17 17 17 16 17 17 17 18 19 19
28 27 26 26 25 23 22 21 20 19 18 16 15 15 16 17 18 18 19 20 20 22 23 24 27 30 28 26 26 28 29 31 34 35 33 30 29 28 26 23 20 17 16 16 18 19 20 19 19 19 19 19 19 18 17 17 16 15 15 15 15 16 17 16 15 12 11 9 9 9 9 11 12 13 14 14 14 14 15 16 17 18 19 20 21
28 27 26 25 24 23 21 20 19 18 17 15 14 14 14 16 17 17 18 19 20 21 23 24 27 29 29 29 29 30 32 32 31 31 31 29 28 27 26 22 20 18 18 17 18 19 19 18 18 18 17 17 16 15 15 14 14 14 13 12 12 12 12 12 12 11 11 11 11 11 11 12 13 13 14 14 15 16 17 18 19 20 21 22 24
28 26 25 25 24 22 21 20 19 18 16 14 13 13 13 14 15 16 17 18 19 21 22 24 26 28 28 28 27 29 31 31 29 28 28 28 27 27 25 23 22 21 20 19 19 18 16 15 15 15 14 14 13 13 13 13 13 13 12 12 12 11 11 11 12 12 12 12 12 12 12 13 14 15 15 16 17 18 20 21 22 23 24 25 26
27 26 24 24 23 22 20 19 18 17 15 13 12 12 12 13 14 14 15 17 18 19 20 22 24 25 27 26 25 26 29 30 28 28 28 27 27 27 27 25 24 22 21 20 19 17 16 15 14 14 13 13 12 11 11 11 11 10 10 10 10 11 11 11 11 11 12 12 12 13 14 16 17 18 18 19 20 21 22 23 24 25 26 27 28
25 25 24 23 23 21 20 18 17 15 14 13 11 11 11 12 12 13 14 15 16 17 18 20 20 22 24 24 22 24 28 29 29 29 28 28 29 29 28 26 24 23 22 21 20 19 17 16 15 14 13 13 13 13 12 11 11 11 11 11 12 12 12 12 12 13 13 14 15 16 17 19 20 20 21 22 23 24 25 26 27 28 28 29 30
24 24 24 23 22 21 19 17 16 14 13 12 11 10 10 11 11 12 13 14 15 16 18 18 17 18 22 22 19 21 26 29 29 29 29 29 29 29 28 27 26 24 23 22 21 20 19 18 17 16 16 16 15 15 14 14 14 14 14 14 14 15 15 15 16 16 16 17 18 19 20 21 22 23 23 24 25 26 27 28 29 30 30 32 33
24 24 23 22 21 20 18 16 14 13 12 11 11 10 10 10 11 11 12 13 13 14 17 17 15 16 21 21 18 19 24 26 26 27 29 29 29 29 28 28 28 27 25 24 22 21 20 20 19 19 19 18 18 17 17 17 17 17 17 16 17 17 18 18 19 19 19 20 21 22 23 23 24 25 25 26 28 29 30 31 31 32 33 34 35
23 23 22 21 20 19 17 15 13 11 10 10 10 10 10 10 10 11 12 13 13 13 15 17 16 17 21 21 18 18 21 23 23 24 25 27 28 29 28 28 29 29 28 26 25 24 23 22 22 21 20 20 20 20 20 20 20 19 19 19 19 19 20 20 21 21 22 22 23 24 25 25 26 27 28 29 30 31 32 33 34 35 36 36 37
23 22 21 19 19 17 15 13 11 10 9 9 10 10 9 9 9 10 12 13 13 13 14 16 16 17 19 20 18 17 19 21 22 23 24 25 26 27 27 27 29 30 30 29 28 26 25 24 23 22 22 22 22 22 22 22 22 21 21 21 21 21 21 22 22 23 24 24 25 26 27 28 29 30 30 31 32 33 34 35 36 37 38 39 39
22 21 20 18 17 14 12 11 10 9 9 9 9 9 9 8 9 9 11 12 13 13 13 14 16 16 17 17 17 16 16 17 18 19 21 24 26 26 26 27 29 31 31 30 29 27 26 25 24 24 24 24 24 24 24 24 24 24 23 23 23 23 23 24 24 25 26 27 27 28 29 30 31 32 32 33 34 35 36 37 38 39 39 40 40
22 21 19 17 14 11 10 9 9 9 9 9 9 8 8 8 8 8 9 11 12 12 12 14 15 15 14 15 16 15 14 14 14 13 14 17 20 22 25 27 28 29 29 29 29 27 26 26 26 27 27 26 26 26 26 26 26 26 26 26 25 25 26 26 27 28 29 30 30 31 32 33 33 34 35 35 36 37 37 37 38 39 39 40 40
20 19 18 16 12 9 8 8 8 8 8 8 8 7 7 7 7 8 8 10 10 11 12 13 14 13 13 13 15 15 14 15 14 13 11 11 13 17 22 25 27 27 28 28 28 26 25 26 27 28 28 28 28 28 28 27 27 27 28 28 28 28 29 30 31 32 33 33 34 34 35 36 37 37 38 38 38 39 39 39 40 40 40 41 42
19 17 16 13 10 8 7 7 7 7 7 7 7 7 6 6 6 6 8 9 10 11 11 12 12 12 11 12 14 14 14 14 15 15 13 11 11 13 17 22 25 27 28 29 29 27 27 27 28 28 27 27 27 27 28 28 29 30 30 30 31 31 32 33 33 33 33 33 34 35 35 36 37 38 39 40 40 41 41 41 41 42 42 43 44
18 16 13 11 9 7 6 6 6 7 7 7 6 6 6 5 5 6 7 8 9 10 10 10 10 10 10 10 11 13 14 13 14 14 14 13 13 14 15 19 24 26 28 29 31 31 31 31 30 28 26 25 25 25 26 27 27 28 28 29 29 29 30 30 30 30 30 30 31 31 32 32 33 34 35 37 38 40 42 43 43 42 41 40 38
Wind_Direction
293 291 288 285 283 283 284 285 286 287 285 283 280 275 268 264 261 262 262 257 250 244 239 234 230 226 225 229 231 229 230 232 233 234 235 236 237 239 240 241 241 242 243 244 243 244 244 247 252 256 257 254 251 248 246 244 242 238 236 235 235 235 234 234 238 237 233 235 240 241 243 248 249 250 252 253 254 255 256 257 259 262 265 269 272
294 291 289 286 284 282 281 281 282 283 282 280 279 276 270 264 260 258 260 259 252 244 239 236 232 226 222 225 230 229 227 229 231 232 233 234 235 237 238 239 240 241 242 243 243 244 244 245 247 250 254 255 254 251 248 246 246 245 243 241 239 238 237 237 241 244 240 237 242 246 246 248 250 250 251 254 255 257 260 261 262 264 266 268 271
294 291 288 285 284 282 280 279 278 278 278 277 276 274 270 264 260 256 256 259 257 246 238 236 233 227 222 223 228 229 227 227 230 231 231 232 233 234 235 236 238 239 241 242 243 243 243 244 245 246 247 250 252 252 250 247 247 248 247 246 244 242 239 238 241 246 247 244 245 250 251 251 252 253 252 254 256 259 262 263 264 264 266 268 270
294 290 286 283 281 279 278 277 275 274 273 273 272 271 269 264 258 255 253 255 256 248 238 234 232 228 225 224 226 228 227 227 229 231 232 232 232 233 233 233 234 236 238 240 242 242 241 241 243 244 244 244 247 250 251 249 248 249 249 249 248 246 243 242 243 246 250 250 248 249 252 253 253 254 255 256 257 259 261 263 264 264 266 268 272
294 289 284 280 277 275 273 273 272 270 269 269 268 267 266 263 257 253 251 252 254 250 239 232 230 230 228 227 227 228 229 229 229 229 231 233 233 234 233 233 232 234 235 237 240 241 241 239 240 241 242 243 245 246 248 249 249 249 250 250 250 249 248 247 247 248 251 253 252 250 251 253 255 256 257 258 258 258 259 261 263 266 268 271 273
295 290 284 279 275 272 270 268 268 267 266 265 265 264 263 261 256 252 251 251 252 253 245 235 230 229 228 228 228 229 230 231 231 230 231 233 235 236 236 236 235 234 235 236 238 240 240 239 239 239 240 242 244 244 244 246 247 249 251 252 252 252 252 252 251 251 252 254 255 253 251 253 257 260 260 260 259 259 259 261 264 267 270 271 272
299 293 287 282 276 272 269 267 265 264 264 263 263 261 259 259 255 249 248 250 252 255 251 240 231 227 226 227 228 229 230 231 232 232 232 233 235 237 238 238 238 237 236 235 237 238 239 240 240 239 239 240 242 244 243 242 244 247 250 253 254 254 254 254 254 253 253 253 255 255 255 255 258 262 264 264 263 262 262 263 266 268 269 271 272
307 300 294 288 283 277 272 270 267 264 263 261 261 259 257 256 254 249 244 245 248 250 250 245 235 227 224 225 227 230 231 232 233 233 232 233 234 236 237 238 240 240 238 237 237 237 237 237 238 239 239 238 239 241 242 241 242 245 249 252 254 255 256 256 256 255 255 255 256 258 259 259 260 262 265 266 266 266 266 267 268 268 270 271 272
313 309 304 298 293 287 281 276 272 268 264 260 258 257 255 253 253 250 243 240 242 244 247 249 242 232 226 225 226 229 232 234 234 233 232 233 234 235 236 236 239 241 241 239 239 238 236 234 235 238 240 240 239 239 241 241 240 242 246 250 253 255 257 258 258 258 257 256 257 258 259 261 261 261 263 265 266 267 267 267 267 269 270 271 271
313 311 307 304 300 297 292 286 280 275 270 264 258 255 255 253 251 250 244 239 239 241 244 247 245 238 231 229 228 228 229 231 233 233 233 233 234 235 236 236 238 240 241 241 240 238 237 234 233 235 237 240 240 239 239 241 240 241 243 247 250 253 256 258 258 258 258 257 257 258 259 260 261 261 262 264 265 266 266 266 267 268 269 271 272
309 307 305 303 300 299 297 293 288 282 276 270 262 256 254 253 251 250 245 238 236 237 239 242 243 239 234 231 230 229 229 228 229 230 230 231 233 234 235 237 237 238 239 241 240 238 237 236 234 234 234 237 239 240 240 240 241 241 241 244 247 250 253 254 255 257 258 258 258 258 258 259 260 261 262 263 264 265 266 266 267 268 270 272 274
307 305 303 301 299 297 295 293 290 286 281 275 268 261 256 254 252 251 246 239 234 233 235 238 241 241 236 231 229 230 230 229 228 228 229 230 230 232 233 235 236 236 237 239 240 238 237 236 236 235 234 235 237 240 240 240 241 241 241 242 245 247 249 250 253 256 259 259 259 259 259 259 260 262 263 264 265 265 266 267 267 269 271 272 273
306 305 303 301 299 297 294 291 287 285 282 277 272 266 260 256 252 251 248 242 236 232 232 234 237 241 241 235 229 227 228 229 229 229 229 230 230 231 233 234 234 234 235 236 237 237 237 237 237 237 237 236 236 238 240 241 241 241 241 241 243 245 247 249 252 255 257 258 260 261 261 261 262 264 265 266 267 267 268 268 268 269 270 270 271
303 303 302 300 299 298 296 292 287 284 280 277 273 268 264 259 254 250 249 245 240 235 232 233 234 237 241 240 234 229 228 229 229 230 231 231 232 233 233 234 234 235 236 237 236 236 237 238 238 239 239 238 237 237 239 240 240 240 240 240 241 243 246 249 252 254 255 257 259 261 262 262 263 265 267 268 268 268 269 269 269 269 268 269 270
300 299 298 297 297 295 294 291 288 284 281 276 271 268 265 262 258 252 249 246 243 238 235 233 232 233 236 239 239 236 232 231 230 230 231 232 234 235 235 235 235 235 237 238 237 237 238 239 240 240 240 240 239 238 237 239 239 238 238 238 240 243 246 249 252 254 255 256 259 261 263 263 264 265 268 269 269 269 270 271 270 269 267 266 267
298 297 296 294 292 291 289 286 284 282 280 277 271 266 264 263 260 255 250 247 244 240 237 234 232 232 233 236 239 239 237 234 232 230 230 232 234 236 237 237 236 236 236 237 237 238 239 240 241 242 242 241 241 239 238 237 237 237 238 238 240 243 247 250 252 253 254 256 259 262 264 264 264 265 268 270 271 270 271 272 271 270 267 265 264
299 299 297 294 291 289 286 283 280 276 275 274 271 267 262 261 260 256 252 249 245 242 239 235 233 231 231 234 236 237 238 236 232 229 229 231 233 236 237 237 237 236 236 237 237 238 239 240 241 242 243 242 241 239 238 237 237 237 238 239 241 243 247 251 253 254 255 257 260 262 264 264 263 265 268 270 270 270 271 272 272 271 268 263 262
305 304 301 298 295 293 290 285 281 275 270 268 268 266 261 259 259 258 254 250 246 244 241 236 233 231 231 232 233 235 238 238 233 228 227 229 231 234 235 236 236 236 236 237 238 238 239 239 240 242 244 244 242 240 239 238 237 238 239 240 242 244 247 250 252 253 254 256 259 262 264 265 266 267 269 269 268 268 269 270 271 270 267 263 262
309 307 305 302 300 297 294 289 285 279 271 265 262 262 260 258 257 257 255 251 247 244 242 238 233 230 230 231 231 232 236 238 235 231 229 230 231 233 234 234 235 236 236 237 238 239 239 240 241 242 244 245 243 241 241 240 238 238 239 241 242 244 246 248 251 253 254 254 256 258 261 264 266 268 270 270 270 270 269 270 270 269 266 265 265
311 310 308 306 302 299 295 291 287 282 275 266 260 258 257 256 255 255 254 252 248 244 243 240 235 231 230 231 230 230 233 235 235 233 232 233 234 235 235 235 235 236 237 238 239 240 240 241 241 242 243 244 243 242 242 242 241 239 239 241 243 245 246 247 250 254 255 256 256 256 256 258 262 265 267 270 272 273 272 270 269 268 267 267 266
313 312 311 309 305 301 297 292 287 281 276 270 262 257 254 253 253 253 252 251 248 245 242 241 238 233 231 231 230 230 231 232 233 233 233 233 233 235 236 235 235 235 237 238 239 240 241 242 242 242 242 242 242 243 244 244 243 242 241 243 245 247 248 248 251 254 256 256 256 257 257 258 259 261 264 268 271 273 273 272 270 268 268 267 265
314 314 314 312 308 304 299 294 288 281 275 270 266 260 255 251 250 250 250 248 247 245 243 241 240 236 232 231 231 231 230 231 231 232 233 233 233 234 235 235 235 235 236 238 239 239 240 241 241 241 241 241 241 243 245 246 246 245 245 246 248 249 250 250 251 253 253 254 255 257 258 259 259 261 263 266 269 271 272 272 270 267 265 264 263
316 315 316 314 310 306 302 297 291 284 276 270 267 264 259 254 249 248 248 247 245 245 243 241 240 238 234 231 230 231 231 231 230 231 233 234 234 234 235 235 235 235 236 237 238 239 239 240 240 240 241 241 242 243 244 246 247 248 248 249 250 250 251 251 252 252 252 252 253 255 257 259 260 261 263 265 268 270 272 271 269 265 262 262 262
317 316 316 315 311 307 303 299 293 286 280 273 268 266 263 258 252 247 245 245 244 244 244 241 239 238 234 230 229 229 230 231 231 232 234 235 235 235 235 235 235 235 236 237 238 239 239 240 240 241 242 242 243 244 244 244 246 247 248 249 250 251 251 252 253 253 253 253 253 254 256 258 260 261 262 263 266 268 270 269 266 262 261 262 263
317 315 316 315 312 308 304 300 294 287 282 277 272 268 265 261 255 248 243 242 243 244 244 242 239 237 234 229 226 227 229 230 231 232 234 236 235 235 236 237 237 237 238 238 239 240 240 241 241 242 243 243 244 244 244 244 245 246 247 248 249 251 252 253 253 252 253 254 255 254 255 257 258 259 260 261 263 265 267 266 263 260 260 261 261
317 316 316 315 313 310 305 300 295 288 282 278 275 272 269 265 258 250 244 241 241 243 244 242 240 237 234 229 226 225 227 228 229 230 232 234 235 235 237 239 240 239 240 240 240 240 241 242 243 244 245 245 244 244 243 243 244 246 246 247 249 250 252 252 252 251 251 252 252 253 254 255 257 258 258 259 261 262 263 263 262 260 259 258 257
318 317 316 315 313 310 306 301 296 289 283 279 277 275 273 268 260 251 244 240 240 242 243 243 241 238 234 230 226 224 226 227 228 228 230 232 232 233 235 239 241 241 241 241 241 241 242 243 244 245 245 244 243 243 242 242 243 244 246 247 249 249 250 250 251 252 251 250 250 252 253 255 256 257 257 259 261 262 261 260 260 259 257 254 252
319 318 317 315 312 309 305 301 297 290 284 280 278 276 275 271 263 252 245 241 241 243 244 244 243 239 235 230 226 224 224 226 226 228 229 230 231 232 234 238 241 242 244 244 242 242 242 242 243 245 244 243 242 242 242 242 242 242 244 246 248 248 249 249 250 250 250 249 248 249 251 254 255 255 256 258 260 260 259 257 255 253 249 247 247
319 318 317 315 312 309 305 300 296 291 286 281 278 276 275 271 263 253 245 242 243 244 246 246 244 240 236 230 225 223 223 224 226 228 230 232 232 233 235 238 241 244 246 246 245 243 241 241 243 244 244 242 242 245 247 247 246 245 245 247 248 248 247 247 248 248 247 247 248 250 252 253 253 253 255 255 255 256 256 255 253 249 247 246 249
318 317 317 316 313 309 305 300 294 290 286 282 278 275 272 268 260 252 246 244 245 247 247 246 244 240 236 230 226 223 221 222 224 227 230 232 234 235 238 240 243 246 248 249 248 245 243 242 243 245 245 242 242 246 248 246 243 242 244 246 245 244 244 244 244 245 244 243 245 248 249 250 250 250 251 251 251 253 254 254 253 251 249 250 253
318 317 318 317 314 308 303 299 293 289 287 283 278 273 269 264 258 251 247 246 247 248 248 247 243 240 235 229 224 223 222 221 223 225 228 230 233 235 238 241 244 248 250 251 249 247 246 244 243 245 245 242 242 245 246 241 236 233 236 240 240 240 243 244 242 242 243 243 244 245 247 247 246 246 247 248 250 253 254 252 250 249 250 251 252
318 319 321 320 316 309 303 298 293 289 288 284 278 272 267 262 256 252 249 248 248 248 248 246 243 240 234 225 220 222 222 220 221 223 225 228 230 232 235 239 243 247 250 251 250 248 246 245 244 243 242 241 242 243 238 231 226 222 225 230 231 231 234 236 235 237 240 242 244 246 248 247 245 242 243 245 246 248 248 246 243 242 244 245 247
318 319 321 321 317 312 307 301 294 290 288 285 279 271 265 259 255 252 251 251 250 249 247 245 241 240 234 223 218 220 220 219 220 222 224 226 229 231 233 237 242 245 248 252 252 249 245 245 244 242 240 240 242 242 238 235 234 230 230 234 234 232 234 237 240 243 245 245 244 243 239 237 237 238 238 239 238 238 239 239 237 238 239 242 246
318 318 320 321 317 313 310 305 297 291 288 285 279 271 264 259 255 253 251 251 250 249 246 241 235 234 232 224 218 218 219 219 219 221 224 226 229 231 234 239 243 245 247 253 255 249 243 242 242 239 238 239 242 245 246 248 248 245 246 249 249 247 248 251 253 253 251 249 246 241 233 229 232 235 235 235 234 233 234 235 236 238 242 246 252
317 317 319 320 318 315 312 308 300 292 288 284 279 272 266 260 257 255 251 250 249 247 244 238 228 223 223 223 221 219 220 220 220 220 223 226 229 231 234 239 243 245 246 249 251 247 241 242 243 240 239 240 242 243 246 250 251 250 251 255 256 258 260 260 258 254 248 242 239 237 235 233 233 235 235 233 230 228 229 232 236 242 246 251 256
317 317 319 320 319 316 314 310 303 294 288 284 279 273 268 262 259 257 252 250 248 245 241 235 224 217 217 221 222 220 220 222 222 220 222 226 229 231 234 236 239 242 243 241 242 242 241 243 244 242 240 241 243 245 248 251 253 253 253 255 257 259 260 259 255 252 247 241 237 237 237 234 230 228 227 227 227 228 231 236 241 246 251 256 261
316 316 319 320 319 316 314 310 303 295 289 284 278 272 267 263 261 258 254 251 247 242 238 230 219 213 213 217 220 220 221 224 224 221 221 224 228 230 233 234 235 237 238 234 233 234 234 235 235 235 235 237 240 244 248 251 254 255 254 254 253 253 252 251 248 245 245 244 242 240 237 232 228 226 226 228 231 235 239 244 249 255 259 263 265
316 316 319 320 319 317 314 310 303 295 290 283 276 269 264 262 260 258 254 250 244 238 233 225 216 213 213 214 217 219 219 221 221 219 218 221 226 228 230 231 230 230 230 226 225 225 225 225 226 226 228 230 233 237 241 244 246 247 246 246 245 243 240 237 233 229 225 223 222 222 223 225 227 228 231 235 241 246 250 254 257 260 261 262 263
316 317 319 321 320 317 314 310 302 295 289 283 275 270 265 262 261 258 254 248 241 233 228 223 219 219 218 216 215 216 214 212 212 212 213 217 222 224 225 224 223 224 223 219 219 220 220 219 219 220 221 221 223 227 230 230 229 227 225 223 223 223 224 224 222 220 217 216 217 220 224 229 234 238 243 249 253 256 259 260 260 261 261 261 262
316 317 318 320 320 317 314 309 301 294 289 283 276 271 267 266 265 262 255 247 237 230 226 224 224 224 222 216 214 214 212 210 208 208 209 213 217 218 219 219 220 221 220 217 216 215 213 210 208 207 206 205 206 210 216 218 219 220 220 218 217 215 215 215 215 217 219 222 226 232 238 244 249 253 255 258 258 259 260 261 261 261 261 260 262
315 315 317 319 320 317 313 309 302 294 288 283 278 272 270 271 270 265 255 244 236 232 230 229 229 227 222 215 212 211 209 209 209 208 208 209 211 212 214 216 217 219 219 216 212 208 204 199 196 192 189 189 190 193 198 202 207 213 219 223 228 229 228 227 227 229 233 237 242 246 250 253 255 257 257 257 257 257 258 258 259 260 260 262 264
314 315 316 318 320 318 313 309 303 295 288 285 281 274 272 273 271 266 255 243 237 236 235 235 236 229 218 211 210 209 207 207 210 210 209 209 210 211 212 213 214 216 216 214 210 205 201 200 197 194 193 193 194 197 202 207 214 222 227 231 236 240 243 245 246 246 247 248 249 251 254 255 256 257 257 257 257 258 258 259 259 260 262 264 265
315 315 316 317 319 318 313 309 304 297 290 287 284 279 276 274 271 265 254 243 238 238 237 238 240 229 214 209 212 211 207 206 208 211 211 211 212 213 214 214 214 214 214 213 211 208 206 207 207 207 207 207 208 212 218 226 234 238 238 239 241 243 245 248 249 249 250 251 251 253 254 254 255 257 258 258 259 260 260 261 261 262 263 265 267
317 317 316 315 316 316 313 308 304 298 293 290 286 282 280 276 269 262 253 244 240 240 238 237 233 219 210 210 215 214 209 207 207 209 212 213 215 217 219 220 217 214 213 213 214 214 214 215 216 217 218 220 223 228 234 239 243 244 244 243 244 245 247 248 250 250 251 252 252 253 254 255 256 258 258 260 261 262 263 264 266 267 268 269 271
318 316 315 314 314 313 311 307 302 297 294 290 284 280 277 274 267 259 252 245 241 239 238 236 229 218 211 211 211 210 211 211 210 211 213 215 217 219 221 220 217 213 212 214 217 219 220 221 223 224 227 231 235 239 242 243 244 244 244 245 245 247 248 250 251 253 254 254 255 256 256 257 258 259 260 261 263 264 266 267 268 269 270 271 272
319 317 316 315 313 310 307 304 300 295 290 286 282 277 273 270 264 257 251 247 241 237 236 236 233 226 219 215 213 211 209 209 211 212 214 217 219 220 221 218 214 211 212 215 218 221 223 226 228 231 233 237 240 243 245 246 246 246 246 247 249 250 252 254 255 256 257 258 258 259 259 260 261 262 263 264 266 267 269 270 271 271 272 272 273
321 320 321 319 313 307 302 299 297 295 292 289 286 282 277 271 265 258 252 248 244 240 237 235 231 225 219 219 221 219 211 207 209 213 217 220 222 224 224 222 218 214 213 215 219 222 224 227 231 235 237 239 242 244 246 247 249 249 249 250 251 253 254 256 257 258 260 260 261 262 263 264 265 266 267 269 270 271 273 274 275 275 274 274 274
324 324 326 324 315 303 297 295 296 297 296 296 296 294 286 277 268 259 253 249 245 241 238 235 233 229 224 221 221 220 214 209 209 213 218 222 226 228 229 229 225 219 216 216 219 223 227 231 234 236 237 238 241 244 246 247 248 249 251 252 253 254 255 257 258 259 260 261 262 263 264 266 267 268 269 270 271 272 273 275 275 275 275 275 275
326 328 329 327 318 304 295 294 297 299 302 304 305 299 288 277 267 258 252 249 245 239 235 232 232 232 231 225 221 217 213 210 211 214 217 223 228 231 232 231 228 224 221 220 221 224 229 233 236 237 238 239 242 245 247 247 248 250 252 254 256 257 259 261 261 262 262 263 264 266 267 268 268 269 270 271 272 273 274 274 273 274 276 278 280
329 331 331 328 320 309 300 299 302 307 312 314 311 301 288 276 264 252 247 244 241 236 231 227 225 228 229 224 218 215 212 211 210 209 207 210 218 223 226 227 227 225 224 225 225 225 224 225 229 233 235 237 238 242 246 248 251 253 256 259 260 262 264 265 266 267 267 268 269 270 270 270 270 271 271 271 272 272 272 272 273 276 279 281 282
331 331 330 327 322 314 307 307 311 315 318 319 315 306 292 278 264 249 242 241 238 232 225 219 221 229 232 223 213 210 211 212 211 204 198 199 204 206 208 215 220 222 224 226 226 225 225 226 229 233 237 237 238 241 247 252 255 257 260 262 264 266 267 269 270 270 271 272 272 272 273 274 275 275 275 275 274 273 272 273 275 277 279 281 282
Height
5856 5855 5854 5853 5852 5850 5849 5848 5847 5846 5846 5846 5846 5846 5846 5846 5846 5847 5846 5846 5845 5846 5848 5850 5852 5854 5857 5859 5862 5864 5865 5867 5869 5870 5872 5874 5876 5877 5879 5880 5882 5883 5884 5886 5887 5888 5889 5890 5891 5892 5894 5895 5895 5896 5896 5897 5898 5898 5898 5898 5899 5899 5900 5901 5900 5900 5900 5901 5901 5902 5903 5903 5904 5904 5905 5906 5906 5906 5905 5905 5905 5905 5905 5905 5905
5850 5849 5848 5847 5846 5845 5845 5844 5843 5842 5842 5841 5841 5841 5841 5841 5841 5842 5841 5841 5842 5843 5844 5845 5847 5850 5852 5854 5857 5860 5861 5863 5865 5866 5868 5870 5872 5873 5875 5877 5879 5880 5882 5883 5884 5885 5886 5888 5889 5889 5891 5893 5893 5894 5894 5895 5896 5896 5896 5896 5897 5897 5898 5899 5899 5899 5899 5900 5900 5900 5901 5901 5901 5902 5903 5903 5903 5903 5903 5903 5903 5903 5903 5903 5903
5844 5843 5842 5841 5840 5839 5839 5839 5838 5838 5837 5837 5837 5837 5837 5837 5837 5837 5838 5838 5838 5839 5840 5841 5842 5845 5848 5850 5852 5855 5857 5858 5861 5863 5865 5866 5868 5869 5871 5873 5875 5877 5878 5880 5880 5882 5883 5885 5886 5887 5888 5889 5890 5891 5892 5892 5893 5893 5894 5894 5894 5895 5896 5897 5898 5898 5898 5898 5899 5899 5899 5900 5900 5900 5901 5901 5901 5901 5901 5901 5901 5901 5901 5901 5901
5839 5838 5837 5835 5834 5833 5833 5833 5833 5833 5833 5833 5833 5832 5833 5833 5833 5833 5834 5834 5835 5835 5836 5836 5838 5841 5844 5846 5848 5850 5852 5854 5857 5860 5862 5863 5864 5865 5866 5868 5870 5872 5874 5875 5876 5878 5879 5881 5882 5883 5885 5886 5887 5888 5889 5890 5890 5891 5891 5892 5892 5893 5894 5896 5896 5896 5896 5896 5897 5897 5897 5898 5898 5898 5898 5899 5899 5899 5899 5899 5899 5899 5899 5899 5899
5832 5831 5830 5829 5828 5827 5827 5827 5827 5828 5828 5828 5828 5828 5828 5828 5829 5829 5830 5830 5830 5831 5831 5832 5834 5836 5839 5842 5844 5846 5848 5850 5853 5856 5858 5860 5861 5862 5863 5865 5866 5868 5869 5871 5872 5874 5876 5877 5878 5879 5881 5883 5884 5884 5885 5886 5887 5888 5888 5889 5890 5891 5892 5893 5894 5895 5895 5894 5894 5895 5896 5896 5896 5896 5896 5897 5897 5897 5897 5896 5896 5897 5897 5897 5897
5825 5824 5823 5823 5822 5822 5821 5821 5821 5822 5822 5823 5823 5824 5824 5824 5824 5825 5825 5826 5826 5827 5828 5828 5830 5832 5834 5837 5840 5843 5845 5847 5849 5852 5854 5856 5858 5860 5862 5863 5864 5865 5866 5867 5869 5871 5873 5874 5875 5876 5878 5880 5881 5881 5882 5883 5884 5885 5886 5886 5887 5889 5890 5891 5891 5892 5893 5893 5893 5893 5894 5894 5894 5894 5894 5895 5895 5895 5894 5894 5895 5895 5895 5895 5894
5820 5818 5817 5816 5816 5816 5815 5815 5815 5816 5817 5817 5818 5818 5818 5819 5819 5820 5821 5822 5823 5823 5824 5825 5826 5828 5830 5832 5835 5838 5840 5843 5845 5848 5850 5852 5854 5857 5859 5860 5862 5862 5863 5864 5866 5867 5869 5871 5872 5873 5874 5876 5877 5878 5879 5880 5881 5882 5883 5883 5884 5886 5887 5888 5888 5889 5890 5890 5890 5891 5891 5892 5893 5892 5892 5893 5893 5892 5892 5893 5893 5893 5892 5892 5891
5816 5814 5812 5811 5811 5811 5810 5810 5810 5810 5811 5812 5812 5813 5813 5813 5814 5815 5817 5818 5818 5818 5819 5821 5822 5824 5825 5828 5830 5833 5836 5839 5841 5843 5845 5848 5850 5852 5854 5856 5858 5860 5861 5862 5863 5864 5866 5867 5869 5870 5871 5872 5873 5875 5876 5877 5878 5879 5880 5880 5881 5883 5884 5885 5886 5887 5888 5888 5888 5888 5888 5889 5890 5890 5890 5890 5890 5890 5890 5891 5890 5889 5890 5890 5889
5813 5811 5810 5808 5807 5806 5806 5805 5805 5805 5806 5806 5807 5807 5808 5808 5809 5811 5812 5813 5814 5814 5815 5816 5818 5819 5821 5823 5826 5828 5831 5834 5837 5839 5841 5843 5845 5848 5850 5852 5854 5856 5858 5860 5861 5862 5863 5864 5865 5866 5867 5868 5870 5871 5873 5874 5875 5876 5876 5878 5879 5880 5881 5882 5883 5884 5885 5886 5885 5885 5885 5886 5886 5886 5887 5887 5887 5887 5888 5888 5887 5886 5887 5887 5886
5811 5809 5807 5806 5804 5803 5803 5802 5801 5801 5801 5801 5802 5802 5802 5803 5804 5806 5807 5808 5809 5810 5811 5812 5814 5815 5817 5819 5821 5823 5826 5829 5831 5834 5836 5838 5841 5843 5845 5848 5850 5852 5854 5856 5858 5859 5860 5861 5862 5863 5864 5865 5867 5868 5870 5871 5872 5872 5873 5874 5876 5877 5878 5879 5881 5881 5882 5882 5882 5882 5883 5883 5882 5883 5884 5884 5885 5885 5885 5885 5885 5884 5884 5883 5883
5808 5806 5805 5803 5802 5800 5800 5799 5798 5798 5797 5797 5797 5797 5798 5798 5799 5801 5802 5803 5804 5806 5807 5809 5810 5811 5812 5814 5816 5818 5821 5823 5825 5827 5830 5832 5835 5837 5840 5842 5845 5847 5850 5852 5854 5855 5856 5857 5858 5859 5860 5862 5864 5865 5866 5867 5868 5869 5870 5871 5872 5873 5875 5876 5877 5878 5878 5879 5879 5879 5879 5879 5879 5879 5880 5881 5881 5882 5882 5882 5881 5881 5881 5881 5879
5805 5804 5802 5800 5799 5797 5796 5796 5795 5794 5794 5794 5793 5793 5794 5794 5795 5796 5797 5798 5799 5801 5802 5804 5805 5806 5807 5809 5811 5813 5816 5817 5819 5821 5824 5826 5828 5831 5834 5836 5839 5842 5845 5847 5849 5851 5852 5853 5854 5856 5857 5858 5860 5861 5862 5864 5865 5866 5867 5868 5869 5870 5871 5872 5873 5874 5875 5876 5876 5876 5876 5876 5876 5876 5876 5878 5878 5879 5879 5878 5878 5878 5878 5878 5876
5802 5801 5799 5797 5796 5794 5793 5792 5791 5790 5790 5790 5790 5790 5790 5790 5790 5791 5792 5793 5794 5796 5798 5799 5801 5802 5802 5804 5805 5808 5810 5812 5814 5816 5819 5821 5824 5826 5828 5831 5834 5837 5840 5842 5844 5846 5847 5849 5850 5852 5854 5855 5856 5857 5859 5860 5861 5863 5864 5865 5866 5866 5867 5869 5869 5870 5871 5872 5873 5873 5873 5873 5873 5873 5873 5875 5875 5875 5875 5875 5875 5875 5875 5874 5873
5799 5798 5796 5794 5792 5791 5790 5789 5788 5787 5786 5786 5786 5786 5786 5786 5786 5787 5788 5789 5790 5792 5793 5795 5796 5798 5799 5800 5801 5802 5804 5806 5809 5811 5814 5817 5820 5821 5824 5827 5830 5833 5835 5837 5839 5841 5843 5844 5846 5848 5850 5851 5852 5854 5855 5857 5858 5860 5861 5861 5862 5863 5864 5865 5866 5867 5868 5868 5869 5869 5869 5870 5870 5870 5871 5872 5872 5872 5872 5871 5872 5872 5871 5871 5870
5795 5794 5792 5790 5789 5788 5787 5786 5785 5783 5783 5782 5782 5782 5781 5781 5782 5783 5784 5785 5786 5787 5789 5790 5792 5793 5795 5796 5797 5798 5800 5801 5804 5806 5809 5812 5815 5817 5820 5823 5826 5828 5831 5833 5835 5837 5838 5840 5842 5844 5846 5848 5849 5850 5852 5853 5854 5855 5856 5857 5858 5860 5861 5862 5863 5863 5864 5865 5865 5866 5866 5867 5867 5867 5868 5868 5868 5868 5868 5868 5868 5868 5868 5867 5867
5792 5790 5788 5786 5784 5783 5782 5782 5781 5780 5779 5778 5778 5778 5777 5777 5777 5779 5780 5781 5782 5783 5784 5786 5788 5789 5791 5792 5794 5795 5795 5796 5799 5802 5804 5807 5809 5812 5815 5819 5821 5824 5826 5828 5830 5832 5834 5835 5838 5840 5842 5844 5845 5847 5848 5849 5850 5851 5853 5854 5855 5857 5858 5859 5859 5859 5860 5861 5862 5862 5863 5863 5864 5864 5864 5864 5864 5864 5865 5864 5864 5864 5864 5864 5864
5788 5786 5783 5781 5779 5778 5777 5776 5776 5775 5775 5774 5774 5773 5773 5773 5773 5774 5775 5776 5778 5779 5780 5781 5784 5786 5787 5788 5789 5791 5791 5792 5794 5797 5800 5802 5804 5807 5810 5813 5816 5818 5821 5823 5824 5826 5829 5831 5833 5834 5837 5839 5841 5842 5843 5844 5846 5848 5850 5851 5853 5854 5855 5855 5854 5855 5856 5857 5858 5859 5859 5860 5860 5860 5861 5861 5860 5861 5861 5861 5860 5860 5860 5861 5860
5783 5781 5778 5776 5774 5773 5772 5771 5770 5770 5770 5769 5769 5769 5769 5769 5769 5769 5770 5772 5773 5774 5775 5777 5779 5781 5783 5784 5785 5786 5787 5789 5791 5793 5796 5798 5800 5802 5805 5808 5810 5813 5815 5817 5819 5821 5823 5825 5827 5829 5832 5834 5836 5837 5839 5840 5842 5844 5846 5847 5849 5850 5851 5850 5850 5851 5853 5853 5854 5855 5856 5856 5856 5856 5857 5857 5857 5858 5858 5857 5857 5857 5857 5857 5857
5778 5776 5774 5772 5770 5768 5767 5766 5765 5764 5764 5764 5764 5765 5765 5765 5765 5765 5766 5767 5768 5770 5771 5772 5774 5777 5778 5780 5781 5782 5784 5785 5788 5790 5792 5793 5796 5798 5800 5803 5805 5807 5809 5811 5813 5815 5818 5820 5822 5825 5827 5829 5830 5833 5834 5836 5837 5840 5841 5842 5844 5847 5847 5846 5846 5847 5849 5850 5851 5852 5852 5852 5852 5853 5853 5853 5853 5854 5854 5854 5854 5854 5854 5854 5854
5774 5772 5770 5768 5766 5764 5762 5761 5760 5759 5759 5759 5759 5760 5760 5760 5761 5761 5761 5762 5764 5765 5767 5768 5770 5772 5773 5775 5777 5779 5780 5782 5784 5786 5788 5790 5792 5794 5796 5798 5800 5802 5804 5806 5808 5811 5813 5815 5817 5819 5822 5823 5825 5827 5829 5831 5833 5835 5836 5838 5841 5842 5841 5841 5842 5843 5845 5846 5847 5848 5848 5849 5849 5849 5850 5850 5850 5850 5850 5850 5851 5851 5851 5851 5852
5770 5768 5766 5763 5761 5759 5757 5756 5755 5754 5754 5754 5754 5754 5755 5756 5757 5757 5757 5758 5759 5760 5762 5763 5765 5766 5768 5770 5773 5775 5777 5779 5781 5783 5785 5787 5788 5790 5792 5794 5795 5797 5799 5801 5804 5806 5808 5810 5812 5814 5815 5817 5819 5821 5824 5826 5827 5829 5832 5835 5836 5836 5836 5837 5839 5839 5840 5842 5842 5843 5843 5844 5845 5845 5846 5846 5846 5846 5846 5847 5847 5847 5847 5847 5848
5765 5764 5761 5759 5757 5754 5753 5751 5750 5749 5749 5749 5749 5750 5750 5751 5752 5753 5753 5753 5754 5755 5757 5758 5760 5761 5763 5766 5769 5771 5773 5775 5777 5779 5781 5783 5785 5786 5788 5789 5791 5793 5795 5797 5799 5801 5803 5804 5806 5807 5809 5811 5814 5816 5819 5820 5822 5825 5828 5830 5831 5831 5832 5833 5834 5834 5836 5837 5837 5837 5838 5838 5839 5841 5841 5842 5842 5842 5842 5842 5843 5843 5843 5843 5843
5761 5759 5757 5755 5752 5750 5748 5747 5745 5745 5744 5744 5745 5745 5745 5746 5747 5748 5749 5749 5750 5751 5752 5754 5755 5757 5758 5761 5764 5767 5769 5771 5773 5775 5777 5779 5780 5782 5784 5785 5787 5789 5791 5793 5794 5796 5797 5799 5800 5802 5803 5806 5809 5811 5814 5815 5818 5821 5823 5825 5826 5826 5827 5827 5828 5829 5830 5831 5832 5832 5832 5833 5834 5836 5837 5837 5838 5838 5838 5838 5839 5839 5839 5839 5839
5757 5755 5753 5751 5748 5746 5744 5743 5741 5740 5740 5740 5740 5740 5740 5741 5742 5743 5744 5745 5745 5746 5747 5749 5751 5752 5754 5756 5759 5762 5764 5767 5769 5771 5773 5774 5776 5778 5780 5781 5783 5785 5787 5788 5789 5791 5792 5794 5795 5797 5798 5801 5803 5806 5809 5811 5813 5816 5818 5819 5820 5821 5821 5822 5823 5825 5826 5827 5828 5828 5828 5829 5830 5831 5832 5833 5833 5834 5834 5834 5834 5834 5834 5834 5834
5754 5751 5749 5747 5745 5743 5740 5739 5737 5736 5735 5735 5735 5735 5736 5736 5737 5738 5739 5740 5741 5742 5743 5744 5746 5747 5749 5751 5754 5757 5759 5762 5764 5766 5768 5770 5772 5774 5775 5777 5779 5781 5783 5784 5785 5787 5788 5789 5791 5792 5794 5796 5798 5801 5804 5806 5808 5810 5811 5813 5814 5815 5816 5817 5818 5819 5821 5822 5823 5823 5824 5825 5825 5826 5827 5828 5829 5829 5829 5829 5829 5830 5830 5830 5830
5750 5748 5745 5743 5741 5739 5737 5735 5733 5732 5731 5731 5731 5731 5731 5731 5732 5733 5734 5736 5737 5737 5738 5740 5741 5743 5744 5746 5749 5752 5754 5757 5760 5762 5764 5766 5768 5769 5771 5773 5775 5777 5778 5780 5781 5783 5784 5785 5786 5788 5789 5791 5793 5796 5798 5800 5802 5804 5806 5807 5809 5810 5811 5810 5811 5813 5815 5817 5817 5818 5819 5820 5821 5822 5822 5823 5824 5824 5824 5824 5825 5825 5825 5826 5827
5746 5744 5742 5739 5736 5734 5732 5731 5729 5728 5727 5726 5726 5726 5727 5727 5727 5728 5729 5731 5732 5733 5734 5736 5737 5738 5740 5742 5744 5747 5750 5753 5756 5758 5760 5762 5763 5765 5767 5769 5771 5772 5774 5775 5777 5779 5780 5781 5783 5784 5785 5787 5789 5791 5793 5794 5796 5799 5801 5802 5804 5805 5805 5805 5805 5807 5809 5811 5813 5813 5814 5815 5816 5817 5817 5818 5818 5819 5820 5820 5821 5821 5821 5822 5822
5742 5740 5738 5735 5732 5730 5728 5726 5725 5724 5723 5722 5722 5722 5722 5722 5723 5724 5725 5727 5728 5729 5731 5732 5733 5734 5736 5738 5740 5743 5746 5750 5752 5754 5756 5758 5760 5762 5764 5766 5767 5768 5770 5771 5773 5775 5777 5778 5779 5780 5781 5782 5784 5786 5788 5790 5792 5794 5796 5797 5798 5799 5800 5800 5802 5803 5805 5807 5808 5809 5810 5810 5811 5812 5812 5813 5814 5815 5816 5816 5816 5816 5816 5816 5817
5738 5736 5734 5731 5729 5726 5724 5722 5721 5720 5719 5718 5718 5718 5718 5718 5719 5720 5721 5723 5724 5726 5727 5728 5729 5731 5732 5734 5736 5739 5742 5746 5749 5751 5753 5755 5757 5759 5761 5762 5763 5765 5766 5768 5769 5771 5773 5774 5775 5776 5777 5778 5781 5782 5784 5786 5787 5790 5791 5792 5793 5795 5795 5796 5797 5799 5800 5802 5803 5804 5805 5806 5806 5807 5808 5809 5810 5810 5810 5811 5811 5811 5812 5812 5813
5735 5732 5730 5728 5725 5723 5720 5718 5717 5716 5715 5715 5714 5714 5714 5714 5715 5716 5717 5719 5720 5722 5723 5724 5725 5726 5728 5730 5732 5735 5739 5743 5746 5748 5750 5752 5754 5756 5757 5759 5760 5761 5762 5764 5765 5767 5769 5770 5772 5772 5773 5775 5777 5779 5780 5781 5782 5785 5787 5787 5787 5789 5791 5792 5793 5794 5795 5797 5799 5800 5800 5801 5801 5802 5803 5803 5804 5805 5805 5806 5807 5808 5809 5810 5811
5732 5729 5726 5724 5721 5719 5717 5715 5713 5713 5712 5711 5711 5710 5710 5711 5711 5712 5714 5715 5716 5718 5719 5720 5721 5722 5724 5726 5729 5732 5736 5739 5742 5744 5747 5749 5751 5753 5754 5756 5757 5758 5759 5760 5761 5762 5765 5767 5768 5770 5771 5773 5775 5776 5777 5777 5778 5782 5783 5782 5783 5785 5786 5787 5789 5789 5790 5793 5794 5794 5795 5796 5797 5797 5798 5798 5800 5800 5801 5802 5804 5805 5806 5807 5809
5728 5726 5723 5720 5718 5715 5713 5712 5710 5709 5709 5708 5707 5707 5707 5707 5708 5709 5710 5711 5712 5714 5715 5716 5717 5719 5720 5723 5725 5728 5732 5736 5739 5741 5743 5745 5747 5750 5751 5753 5754 5755 5755 5756 5757 5759 5761 5763 5764 5766 5768 5770 5771 5772 5773 5773 5774 5776 5777 5778 5779 5780 5780 5781 5784 5785 5786 5788 5790 5790 5791 5792 5792 5793 5793 5794 5795 5796 5797 5799 5801 5802 5803 5804 5806
5725 5722 5720 5717 5714 5712 5710 5709 5707 5706 5705 5705 5704 5704 5704 5704 5705 5706 5707 5708 5709 5710 5711 5712 5714 5715 5717 5719 5722 5725 5729 5733 5736 5738 5740 5742 5744 5747 5748 5750 5751 5752 5752 5753 5754 5755 5757 5759 5760 5762 5764 5766 5767 5768 5769 5770 5770 5771 5772 5774 5775 5777 5777 5778 5780 5781 5782 5784 5785 5785 5786 5787 5787 5787 5789 5789 5791 5793 5794 5796 5798 5799 5800 5801 5802
5721 5719 5717 5714 5711 5709 5707 5705 5704 5703 5702 5702 5701 5701 5701 5701 5702 5703 5704 5705 5706 5707 5708 5709 5710 5712 5714 5716 5719 5723 5726 5729 5732 5735 5737 5739 5742 5744 5746 5747 5747 5748 5749 5750 5751 5752 5754 5756 5757 5759 5760 5762 5763 5764 5765 5766 5767 5768 5769 5770 5771 5773 5774 5775 5776 5777 5778 5779 5780 5780 5780 5780 5781 5782 5784 5786 5788 5790 5792 5794 5795 5796 5797 5798 5799
5718 5716 5713 5711 5709 5706 5704 5702 5701 5700 5699 5698 5698 5698 5699 5699 5699 5700 5701 5702 5702 5703 5704 5706 5707 5709 5711 5713 5716 5719 5723 5725 5728 5731 5734 5737 5739 5741 5743 5744 5745 5745 5747 5748 5749 5750 5751 5753 5754 5755 5757 5758 5760 5761 5762 5763 5763 5765 5766 5766 5767 5769 5770 5771 5772 5773 5773 5774 5775 5776 5776 5777 5777 5779 5781 5784 5786 5787 5789 5791 5792 5793 5794 5795 5795
5716 5713 5710 5708 5706 5703 5701 5700 5698 5697 5696 5696 5695 5695 5696 5696 5697 5697 5698 5698 5699 5700 5701 5702 5704 5706 5708 5710 5713 5717 5721 5723 5725 5728 5731 5734 5736 5738 5740 5741 5742 5743 5745 5746 5747 5747 5749 5750 5751 5752 5753 5754 5755 5757 5758 5759 5760 5761 5762 5763 5764 5765 5766 5767 5769 5770 5770 5771 5772 5772 5773 5774 5776 5778 5780 5782 5784 5785 5787 5788 5789 5790 5791 5791 5792
5713 5711 5708 5705 5703 5701 5699 5697 5696 5694 5693 5693 5693 5692 5693 5693 5693 5694 5694 5695 5695 5696 5697 5699 5701 5703 5706 5709 5712 5715 5719 5721 5723 5726 5729 5731 5733 5735 5737 5738 5740 5741 5742 5743 5744 5745 5746 5747 5748 5749 5750 5751 5752 5753 5755 5756 5757 5758 5759 5760 5761 5762 5763 5764 5765 5767 5768 5769 5770 5771 5772 5773 5775 5777 5779 5780 5782 5783 5785 5785 5786 5787 5788 5789 5789
5710 5708 5705 5703 5701 5698 5696 5695 5693 5692 5691 5690 5690 5689 5690 5690 5690 5690 5691 5691 5692 5692 5694 5695 5697 5698 5701 5704 5708 5711 5715 5717 5719 5722 5724 5727 5729 5732 5734 5735 5737 5739 5740 5741 5742 5742 5743 5743 5744 5746 5747 5749 5750 5751 5752 5754 5755 5756 5757 5758 5759 5760 5761 5762 5763 5765 5766 5767 5768 5770 5771 5773 5775 5776 5778 5779 5780 5781 5782 5783 5784 5785 5785 5786 5787
5707 5704 5702 5700 5698 5696 5694 5692 5691 5689 5688 5688 5687 5687 5687 5687 5687 5687 5687 5688 5688 5689 5691 5692 5693 5695 5696 5699 5702 5704 5708 5711 5713 5716 5720 5723 5726 5729 5731 5733 5735 5736 5738 5739 5739 5740 5740 5741 5742 5744 5745 5747 5748 5750 5751 5752 5754 5755 5756 5758 5759 5760 5761 5762 5763 5765 5766 5767 5768 5770 5771 5773 5774 5775 5776 5777 5778 5779 5780 5781 5781 5782 5783 5783 5784
5704 5702 5700 5697 5695 5693 5692 5690 5689 5687 5686 5686 5685 5685 5685 5685 5685 5685 5685 5685 5686 5687 5688 5690 5691 5692 5694 5697 5699 5701 5704 5707 5710 5713 5716 5720 5723 5726 5728 5730 5732 5734 5736 5737 5738 5739 5740 5740 5741 5742 5744 5745 5747 5748 5750 5751 5753 5754 5756 5757 5759 5760 5761 5762 5763 5764 5765 5766 5768 5769 5770 5771 5772 5773 5774 5775 5776 5777 5777 5778 5779 5779 5780 5780 5781
5701 5699 5697 5695 5693 5691 5689 5688 5687 5685 5684 5684 5683 5683 5683 5683 5683 5683 5683 5683 5684 5685 5687 5688 5689 5691 5693 5695 5698 5700 5703 5706 5709 5711 5714 5717 5720 5722 5725 5727 5730 5732 5734 5736 5737 5738 5739 5739 5740 5741 5743 5744 5746 5747 5749 5750 5752 5753 5755 5756 5758 5759 5760 5761 5762 5763 5764 5765 5766 5767 5768 5769 5770 5771 5772 5772 5773 5774 5775 5775 5776 5776 5777 5777 5778
5699 5697 5695 5692 5691 5689 5687 5686 5685 5684 5683 5682 5682 5682 5682 5682 5682 5681 5681 5682 5682 5684 5686 5687 5688 5689 5691 5694 5697 5699 5701 5704 5707 5710 5712 5714 5717 5719 5722 5725 5728 5731 5733 5735 5736 5737 5738 5738 5739 5741 5742 5743 5744 5746 5747 5749 5751 5752 5753 5755 5756 5757 5758 5759 5760 5761 5762 5763 5764 5765 5766 5767 5768 5769 5769 5770 5771 5771 5772 5772 5773 5773 5774 5774 5774
5696 5694 5692 5690 5688 5687 5685 5684 5683 5682 5681 5681 5680 5680 5680 5680 5680 5680 5680 5680 5681 5683 5684 5686 5688 5689 5691 5694 5696 5697 5700 5702 5705 5708 5710 5713 5715 5718 5721 5724 5727 5729 5731 5733 5735 5736 5736 5737 5738 5740 5741 5742 5743 5744 5746 5747 5749 5750 5751 5753 5754 5755 5756 5757 5758 5759 5760 5761 5762 5763 5764 5764 5765 5766 5767 5767 5768 5768 5769 5769 5770 5770 5770 5770 5770
5694 5692 5690 5688 5686 5685 5683 5682 5682 5681 5680 5680 5679 5679 5679 5679 5679 5679 5679 5679 5680 5681 5683 5684 5686 5689 5691 5693 5694 5696 5698 5700 5703 5706 5708 5711 5713 5716 5719 5722 5724 5727 5729 5731 5733 5734 5735 5736 5737 5738 5739 5741 5742 5743 5745 5746 5747 5748 5749 5750 5752 5753 5753 5754 5755 5756 5757 5758 5759 5760 5761 5762 5762 5763 5764 5764 5764 5765 5765 5765 5766 5766 5766 5766 5765
5692 5690 5688 5686 5684 5683 5682 5681 5680 5679 5679 5678 5678 5678 5678 5678 5678 5677 5677 5678 5679 5680 5681 5682 5684 5686 5688 5690 5692 5694 5696 5698 5701 5704 5706 5709 5711 5714 5716 5719 5721 5724 5726 5729 5730 5732 5733 5734 5735 5737 5738 5740 5741 5742 5743 5744 5745 5746 5747 5748 5749 5750 5751 5752 5753 5754 5755 5756 5757 5757 5758 5758 5759 5759 5760 5760 5761 5761 5761 5761 5761 5761 5761 5761 5760
5689 5687 5685 5684 5682 5681 5680 5679 5678 5678 5677 5677 5677 5677 5676 5676 5676 5676 5676 5677 5678 5679 5680 5681 5683 5684 5685 5687 5689 5691 5693 5696 5699 5702 5704 5707 5709 5712 5714 5716 5718 5720 5723 5725 5727 5729 5731 5732 5734 5735 5737 5738 5739 5740 5741 5742 5743 5744 5744 5745 5746 5747 5748 5749 5750 5751 5752 5753 5753 5754 5754 5755 5755 5756 5756 5756 5756 5757 5757 5756 5756 5756 5756 5755 5755
5687 5685 5683 5682 5680 5679 5678 5678 5677 5677 5676 5676 5676 5676 5676 5676 5675 5675 5675 5676 5677 5678 5680 5681 5681 5682 5684 5685 5687 5690 5692 5695 5697 5700 5703 5705 5707 5709 5711 5713 5715 5717 5719 5722 5724 5726 5728 5730 5732 5733 5734 5735 5736 5737 5739 5740 5740 5741 5742 5743 5744 5744 5745 5746 5747 5748 5748 5749 5749 5750 5750 5751 5751 5751 5752 5752 5752 5752 5752 5751 5751 5751 5750 5750 5750
5685 5683 5681 5680 5679 5678 5677 5677 5676 5676 5675 5675 5675 5676 5676 5675 5675 5675 5675 5675 5676 5678 5679 5680 5680 5681 5683 5684 5686 5689 5691 5694 5696 5699 5701 5703 5705 5707 5709 5710 5713 5715 5717 5719 5722 5724 5726 5728 5730 5730 5731 5732 5733 5734 5735 5736 5738 5739 5739 5740 5741 5742 5742 5743 5743 5744 5744 5745 5745 5745 5746 5746 5746 5746 5747 5747 5747 5747 5747 5746 5746 5745 5745 5744 5744
5683 5681 5680 5679 5678 5677 5676 5676 5675 5675 5675 5675 5675 5675 5674 5674 5675 5674 5674 5674 5676 5677 5678 5678 5680 5681 5683 5684 5686 5688 5690 5692 5695 5698 5700 5701 5703 5705 5707 5708 5710 5712 5714 5717 5719 5722 5724 5726 5727 5727 5728 5730 5731 5732 5732 5733 5734 5735 5736 5737 5738 5738 5739 5739 5740 5740 5740 5741 5741 5741 5741 5741 5741 5741 5742 5742 5741 5741 5741 5741 5741 5740 5740 5739 5739
5682 5680 5679 5678 5677 5676 5676 5675 5675 5675 5674 5674 5674 5674 5673 5674 5674 5674 5674 5674 5675 5676 5677 5679 5680 5682 5683 5684 5686 5687 5689 5691 5693 5696 5698 5699 5701 5703 5705 5707 5709 5710 5711 5713 5715 5717 5719 5721 5722 5723 5724 5726 5728 5729 5729 5729 5730 5731 5732 5733 5733 5734 5734 5735 5735 5736 5736 5736 5736 5736 5736 5736 5736 5736 5736 5736 5736 5736 5736 5735 5735 5735 5734 5734 5733
5681 5680 5678 5677 5676 5676 5676 5675 5675 5675 5674 5674 5674 5674 5673 5673 5674 5674 5674 5674 5675 5676 5678 5680 5681 5682 5683 5684 5685 5687 5689 5690 5692 5694 5696 5697 5698 5700 5703 5705 5706 5707 5708 5709 5711 5713 5714 5716 5718 5719 5721 5722 5723 5724 5725 5726 5726 5728 5728 5729 5729 5730 5730 5730 5731 5731 5731 5731 5731 5732 5732 5731 5731 5731 5731 5731 5730 5730 5730 5730 5729 5729 5729 5728 5727